Location: Newark
(42.8481°N, 0.4872°E)
Time: 16:26:42
(UTC+00:00)

Vanguard 3 - Pass Details

Date: 03 November 2020
Orbit: 508 x 3262 km, 33.3° (Epoch: 28 November)

Event Time Altitude Azimuth Distance (km) Brightness Sun altitude
Rises 10:33:02 0° 280° (W) 7,185 11.7 29.8°
Reaches altitude 10° 10:39:01 10° 271° (W) 6,204 11.5 30.1°
Maximum altitude 10:53:25 27° 224° (SW) 4,542 11.6 30.8°
Drops below altitude 10° 11:05:13 10° 174° (S) 4,993 12.7 31.3°
Sets 11:09:25 0° 162° (SSE) 5,603 12.5 31.4°
